User: anonymous   Login
Location: Carnetin
(48.9010°N, 2.7059°E)
Time: 10:46:11
(UTC+00:00)
Language:

NOSS 8 (F) - Orbit

View from above orbital plane
View from above orbital plane
View from above satellite
View from above satellite

Ground track
Ground track

The orbit data is extracted from the following two-line orbital elements,

1 18010U 87043F   22019.76600547  .00003332  00000-0  25105-3 0  9998
2 18010  63.2998  42.5683 0948868  74.1449 296.1994 13.47845482125676
Epoch (UTC): 19 January 2022 18:23:02
Eccentricity: 0.0948868
inclination: 63.2998°
perigee height: 372 km
apogee height: 1788 km
right ascension of ascending node: 42.5683°
argument of perigee: 74.1449°
revolutions per day: 13.47845482
mean anomaly at epoch: 296.1994°
orbit number at epoch: 12567

The dashed part of the orbit path shows where the satellite is in the earth's shadow,  

DLR